Location: Newark
(47.6522°N, 2.0836°W)
Time: 18:45:54
(UTC+00:00)

N. Korean satellite - Visible Passes

Search period start: 15 September 2019 00:00
Search period end: 25 September 2019 00:00
Orbit: 455 x 508 km, 97.2° (Epoch: 15 September)

Date Brightness Start Highest point End Pass type
(mag) Time Alt. Az. Time Alt. Az. Time Alt. Az.
16 Sep 9.9 05:08:24 10° ENE 05:10:12 13° E 05:11:58 10° ESE visible
20 Sep 10.3 05:01:34 10° ENE 05:02:38 11° E 05:03:41 10° ESE visible
23 Sep 9.7 05:18:06 10° NE 05:20:30 18° E 05:22:55 10° SE visible
